Find Starlink 2111

NORAD ID: 47390 Int'l Des: 2021-005 Owner: SPXS Country: US Constellation: starlink operational
LEOCIRCULARSTARLINK_TYPE

Live Position

Loading 3D Globe...

About Starlink 2111

Description loading...

Upcoming Passes

Passes for default location (London). Set your location on the main map for personalized predictions.

Altitude History

Loading altitude history...

Two-Line Element Set

1 47390U 21005AT 26110.66668981 .00014577 00000-0 51665-3 0 9991
2 47390 53.1513 231.1982 0001242 88.0063 50.9938 15.29345501 5805
Epoch: Apr 20, 2026 • Age: 3 hours

Current Status

Altitude 487.1 km
Velocity 7.62 km/s
Sub-Earth Point -29.13°S, 66°W
Launch Date Jan 20, 2021
Age 5.2 years
Type internet

Technical Details

Classification Payload
Mass 260.00 kg
Dry Mass 248.00 kg
Total Mass 260.00 kg
Length 0.20 m
Diameter 2.80 m
Span 9.00 m
Shape Box + pan
Manufacturer SPXS
Bus Type Starlink
Phase Status In Orbit
Owner/State SPXS/US

Most Searched